Regional Weather Roundup
Issued by NWS

Home | Current Version | Previous Version | Graphics & Text | Print | Product List | Glossary On
Versions: 1 2 3 4 5 6 7 8 9 10 11 12 13 14 15 16 17 18 19 20 21 22 23 24 25 26 27 28 29 30 31 32 33 34 35 36 37 38 39 40 41 42 43 44 45 46 47 48 49 50
000
ASUS45 KTFX 200210
RWRMT
MONTANA REGIONAL WEATHER ROUNDUP
NATIONAL WEATHER SERVICE GREAT FALLS MT
800 PM MDT THU APR 19 2018

NOTE: "FAIR" INDICATES FEW OR NO CLOUDS BELOW 12000 FEET WITH NO
SIGNIFICANT WEATHER AND/OR OBSTRUCTIONS TO VISIBILITY.

MTZ001>007-043-200300-
WEST OF THE DIVIDE

CITY           SKY/WX    TMP DP  RH WIND       PRES   REMARKS
KALISPELL      FAIR      57  29  34 S7        30.05R
MISSOULA       FAIR      56  24  29 N14       30.04R
BUTTE          CLOUDY    51  22  31 N5        30.04R
MULLAN PASS    FAIR      41  22  46 VRB6      30.11R
ANACONDA         N/A     50  21  32 N6        30.04R
DEER LODGE       N/A     48  25  40 N3        30.06R
HAMILTON         N/A     55  25  30 MISG      30.03R
RONAN            N/A     57  28  33 CALM      30.07S
$$

MTZ008-052>055-200300-
SOUTHWEST MONTANA

CITY           SKY/WX    TMP DP  RH WIND       PRES   REMARKS
BOZEMAN        MOCLDY    54  27  35 E6        30.01R
DILLON         CLOUDY    51  22  31 N15       29.99R
ENNIS          CLOUDY    50  25  37 NE13      30.04R
W YELLOWSTONE  FAIR      45  21  39 NE8G14    29.98R
THREE FORKS      N/A     57  28  33 NE5       30.00R
$$

MTZ009-010-012-014-046-048-049-054-200300-
EAST SLOPES AND CENTRAL MONTANA

CITY           SKY/WX    TMP DP  RH WIND       PRES   REMARKS
CUT BANK       FAIR      50  26  39 SE7       30.07R
GREAT FALLS    FAIR      54  30  40 NE10      30.04S
HELENA         FAIR      56  29  35 N10       30.02F
AUGUSTA        FAIR      49  25  39 E7        30.06S
BOWMANS CRNR   FAIR      49  25  39 NE6       30.04S
CHOTEAU          N/A     52  28  40 NE5       30.08S
CONRAD           N/A     55  35  46 CALM      30.09
FAIRFIELD      FAIR      52  31  44 NE9       30.05S
POWER          FAIR      51  32  49 N9        30.05S
RAYNESFORD     MOCLDY    56  25  29 E10G17    30.02R
ULM            FAIR      54  30  39 NE9       30.04R
WHITE SULPHUR    N/A     50  23  34 E8        30.03R
$$

MTZ011-013-016-021-045-047-050-051-200300-
NORTH CENTRAL MONTANA

CITY           SKY/WX    TMP DP  RH WIND       PRES   REMARKS
HAVRE          FAIR      53  38  56 E20       30.08S
LEWISTOWN      FAIR      52  30  43 E17       30.05R
N BAR RANCH    FAIR      50  27  40 E12       30.10R
CHINOOK          N/A     54  37  54 E12       30.10S
GEYSER         MOCLDY    53  30  42 E13       30.04R
GRASS RANGE    MOCLDY    52  32  46 E10       30.04R
STANFORD       MOCLDY    51  28  40 E8        30.05R
$$

MTZ017>020-022>027-061-062-200300-
NORTHEAST MONTANA

CITY           SKY/WX    TMP DP  RH WIND       PRES   REMARKS
GLASGOW        FAIR      51  34  52 E24G31    30.15S
GLENDIVE       FAIR      54  28  36 E16       30.19S
JORDAN           N/A     55  31  39 E14       30.10S
MALTA          CLEAR     54  36  50 E16G23    30.12S
SIDNEY         FAIR      50  34  54 E13       30.24S
WOLF POINT     FAIR      51  35  54 E17       30.21S
PLENTYWOOD       N/A     43  36  75 E14       30.27F
POPLAR           N/A     48  36  61 E16       30.22F
SCOBEY           N/A     44  28  53 E13       30.21
$$

MTZ028>42-056>058-200300-
SOUTHCENTRAL AND SOUTHEAST MONTANA

CITY           SKY/WX    TMP DP  RH WIND       PRES   REMARKS
BAKER          FAIR      48  33  56 E16       30.18S
BILLINGS       MOCLDY    57  31  37 E13       30.01S
LIVINGSTON     CLOUDY    54  25  32 E14       30.00S
MILES CITY     FAIR      56  33  42 SE16G22   30.11R
BIG TIMBER     CLEAR     52  27  37 E9        30.04R
EKALAKA          N/A     48  28  46 E15       30.12
FORSYTH          N/A     55  32  41 MISG      30.08R
HARLOWTON      FAIR      53  32  45 E10       30.04R
LAUREL           N/A     57  30  35 E10       30.01S
$$

REGIONAL REPORTS...DAKOTAS

CITY           SKY/WX    TMP DP  RH WIND       PRES   REMARKS
WILLISTON      FAIR      44  35  70 E9        30.28F
MINOT          FAIR      40  34  79 S6        30.33S
DICKINSON      FAIR      45  30  55 E9        30.23S
BEACH          FAIR      50  27  40 E14       30.24S
CROSBY         FAIR      39  37  93 SE7       30.31F
TIOGA          FAIR      36  36 100 E10       30.31F WCI  28
WATFORD CITY   FAIR      43  37  81 E14       30.27F
BISMARCK       FAIR      45  35  68 E10       30.32S
GRAND FORKS    FAIR      40  35  83 SW7       30.37R
FARGO          FAIR      46  31  55 NE5       30.38R
BUFFALO SD       N/A     49  31  49 E17       30.13
RAPID CITY     FAIR      50  32  50 SE21      30.15S
$$

REGIONAL REPORTS...WYOMING/IDAHO/WASHINGTON

CITY           SKY/WX    TMP DP  RH WIND       PRES   REMARKS
GILLETTE       FAIR      52  31  44 SE17G25   30.03F
SHERIDAN       FAIR      55  28  35 SE8       30.00S
BUFFALO WY     FAIR      52  26  36 CALM      30.04S
CODY           FAIR      49  24  37 NE3       30.02S
YELLOWSTONE LA   N/A     39  18  42 CALM      30.05S
IDAHO FALLS    FAIR      56  21  25 N18G24    29.85S
SALMON         CLOUDY    58  23  26 N10G21    29.97R
BOISE          FAIR      64  29  26 NW20G30   29.89R
SPOKANE        FAIR      59  28  30 W15       30.10S
$$

REGIONAL REPORTS...ALBERTA

CITY           SKY/WX    TMP DP  RH WIND       PRES   REMARKS
CALGARY        PTCLDY    45  32  61 S7        30.01F
CARDSTON         N/A     52  27  37 SW3         N/A
EDMONTON       CLEAR     48  27  43 S12G18    29.99F
FORT MCMURRAY  CLEAR     52  23  32 S13       29.93F
HIGH LEVEL     MOCLDY    50  25  37 S6        29.71F
LETHBRIDGE     PTCLDY    54  30  40 SE9       30.04S
LLOYDMINSTER   CLEAR     43  34  70 SE10      30.09F
MEDICINE HAT   CLEAR     54  28  37 SE10      30.07S
ONEFOUR          N/A     45  36  70 E13         N/A
PEACE RIVER    MOCLDY    43  27  52 SW8       29.89F
PINCHER CREEK  CLEAR     50  23  34 W7        30.04F
WATERTON GATE    N/A     50  23  34 SW7         N/A
$$

REGIONAL REPORTS...SASKATCHEWAN

CITY           SKY/WX    TMP DP  RH WIND       PRES   REMARKS
CORONACH         N/A     43  32  65 E9          N/A
CYPRESS HILLS    N/A     43  27  52 SE8         N/A
ESTEVAN        PTCLDY    39  27  60 SE7       30.31F
MOOSE JAW        N/A     41  30  65 SE10        N/A
PRINCE ALBERT  PTCLDY    39  30  70 S8        30.25F
REGINA         MOCLDY    41  34  75 E12       30.30S
ROCKGLEN         N/A     39  32  75 E10         N/A
SASKATOON      PTCLDY    45  34  65 SE18      30.23S
SWIFT CURRENT  MOCLDY    46  34  61 SE15      30.16F
VAL MARIE        N/A     45  34  65 E13         N/A
$$



USA.gov is the U.S. government's official web portal to all federal, state and local government web resources and services.